RH
51 53 55 57 58 59 60 61 63 66 68 69 69 72 77 80 82 81 78 76 79 84 87 88 87 85 84 86 88 87 86 85 82 80 76 71 67 65 65 68 76 84 93 98 97 93 87 78 69 63 56 52 48 48 54 58 60 63 68 75 82 87 93
50 52 53 55 57 58 59 60 61 64 67 68 68 69 75 82 86 84 81 78 80 84 89 92 92 88 87 90 93 93 91 91 89 86 84 81 75 70 65 65 69 75 84 89 89 89 88 82 73 60 53 55 52 44 44 48 53 56 59 64 71 78 86
51 51 52 53 55 57 58 59 60 62 65 67 68 69 73 81 87 88 85 82 83 87 92 95 93 89 91 94 96 95 94 94 95 93 91 89 85 80 71 65 65 67 73 78 79 82 82 82 80 71 61 61 60 52 46 42 43 48 52 55 59 65 74
52 52 52 53 54 56 57 59 60 61 64 66 68 71 75 80 87 91 90 88 88 93 97 99 95 91 93 98 99 97 95 95 94 92 91 89 86 83 78 70 66 65 68 73 75 77 78 80 82 79 72 68 64 58 53 45 40 41 43 47 52 55 60
53 53 53 52 53 55 57 59 60 62 64 66 68 73 77 80 86 91 92 92 93 95 99 100 98 94 96 99 98 96 95 95 93 90 89 87 85 83 81 76 70 65 66 70 72 72 74 76 80 80 78 74 68 63 59 51 44 40 38 39 43 48 52
58 57 55 55 55 56 57 58 60 61 64 66 69 75 79 81 87 92 95 97 95 95 99 101 99 96 96 98 96 95 97 99 98 96 92 88 84 81 81 80 75 70 65 64 66 68 68 68 71 73 75 74 72 69 63 54 44 39 37 35 35 38 45
63 62 61 60 59 60 59 59 59 60 62 66 71 77 81 83 88 94 97 99 97 96 99 99 96 95 95 95 94 94 98 100 101 101 98 93 88 85 84 83 80 76 71 65 62 63 63 64 65 66 68 69 70 70 66 59 53 47 38 34 31 30 32
66 66 66 65 65 65 64 61 61 61 61 65 72 79 82 85 91 96 97 99 98 99 101 97 93 92 93 92 92 94 99 100 100 100 100 99 97 93 89 87 84 82 80 73 65 61 60 61 62 63 64 65 67 67 65 64 64 57 44 36 33 28 25
68 69 69 69 70 70 69 66 63 63 63 66 73 80 83 87 94 97 97 98 98 97 97 94 91 88 88 91 95 97 99 100 100 100 100 100 101 100 97 93 89 86 84 80 72 63 58 59 60 61 64 66 64 63 64 66 68 64 55 49 45 34 24
69 71 71 72 73 73 73 71 67 66 66 69 76 82 85 90 95 98 99 97 95 93 90 89 89 87 88 94 99 101 100 100 100 100 100 100 100 100 100 98 96 94 89 85 79 65 55 52 51 51 57 59 56 58 61 62 64 64 61 62 58 42 27
69 72 74 75 75 75 75 73 71 70 70 72 80 86 90 92 95 98 99 96 93 90 85 83 84 85 88 92 94 95 99 100 100 100 100 100 100 100 100 100 100 100 97 95 92 82 71 63 54 48 48 47 47 51 53 54 56 57 61 69 66 49 31
71 72 74 76 76 76 76 74 73 73 73 75 83 92 98 98 97 95 93 90 86 81 78 80 87 92 95 96 95 96 99 100 100 100 100 100 100 100 100 99 99 99 100 101 99 97 94 87 78 72 68 62 57 53 50 50 49 49 55 64 67 62 47
72 73 74 75 76 77 77 76 76 75 76 78 85 95 101 100 99 95 90 87 83 78 81 89 96 99 100 99 100 99 98 97 98 100 100 100 100 100 100 100 98 97 98 99 100 102 100 94 92 93 91 86 81 76 76 74 64 54 53 58 71 84 75
74 74 75 75 77 79 78 78 77 77 79 83 90 99 101 100 99 96 92 90 87 87 93 98 100 100 99 99 101 99 95 94 97 100 100 99 100 100 100 100 99 99 99 98 99 101 97 91 93 97 96 96 97 96 98 98 85 69 66 75 88 97 90
76 75 75 77 80 82 81 79 79 80 83 89 96 101 101 100 100 98 95 93 92 96 100 100 99 100 100 100 100 99 96 96 99 100 100 100 100 100 100 100 99 99 100 99 100 101 96 91 94 97 97 99 102 99 97 100 96 86 87 97 101 96 89
78 77 77 80 84 85 83 80 80 84 87 94 100 101 100 100 99 99 98 96 97 99 99 99 100 100 100 100 99 99 99 100 101 100 99 101 100 100 101 99 97 99 101 100 99 101 98 95 95 98 99 99 100 99 96 98 101 98 98 102 100 95 87
79 80 81 83 86 87 85 81 82 88 92 97 101 100 100 101 100 99 99 99 99 100 99 100 101 100 100 100 100 100 100 99 100 98 97 97 98 100 101 93 85 91 99 100 100 100 99 99 99 100 101 99 99 99 95 94 98 101 100 99 99 99 87
81 82 83 86 88 89 88 84 85 92 97 100 101 100 100 100 100 100 100 99 100 99 98 98 100 101 101 99 99 100 100 100 101 98 96 95 97 101 99 84 75 80 86 91 97 99 99 100 100 99 99 99 99 100 98 95 93 94 98 101 102 97 84
82 83 84 87 90 92 92 88 87 94 100 101 100 100 100 100 100 100 99 100 100 98 95 90 91 99 102 99 97 97 96 97 100 100 99 97 98 99 89 73 70 76 77 78 83 87 92 99 101 100 100 100 100 99 100 99 94 87 87 94 98 94 90
82 83 86 90 92 93 95 94 92 96 102 101 100 100 100 100 100 100 100 100 99 98 94 85 80 84 88 89 92 93 92 93 95 98 101 99 100 99 88 75 75 77 75 75 76 78 87 96 100 100 100 100 100 100 100 101 100 95 90 92 95 93 98
83 85 88 91 94 95 98 99 98 99 101 101 99 100 100 100 100 100 100 100 97 95 93 86 78 75 73 73 80 88 89 88 88 90 96 99 100 100 95 92 90 84 81 86 86 85 87 91 97 101 101 98 97 98 100 99 100 99 97 99 99 96 100
85 88 90 93 96 98 100 101 100 100 102 101 100 100 100 100 100 100 99 100 98 95 92 87 81 76 71 69 75 82 85 86 87 90 95 98 98 97 96 98 97 92 93 96 94 91 90 90 95 99 100 100 95 90 93 98 100 97 93 97 101 98 102
88 92 93 94 97 100 101 100 99 100 101 101 100 100 100 100 100 100 100 100 97 94 95 93 85 77 73 73 74 79 85 88 91 96 98 98 98 98 98 99 99 98 99 99 96 94 94 96 101 101 100 100 93 84 82 87 90 88 85 89 96 100 103
92 97 96 95 98 101 100 100 100 100 100 100 100 100 100 100 100 100 100 99 95 92 95 96 88 79 75 74 75 82 92 96 96 100 100 95 93 97 98 99 99 99 100 99 98 99 99 99 97 91 84 85 89 89 85 81 79 80 77 75 80 92 101
95 100 99 98 100 101 100 100 100 100 100 100 100 99 99 99 98 96 97 99 99 96 95 96 94 88 81 79 83 93 100 101 99 99 95 86 82 85 88 91 94 98 100 100 99 100 101 95 84 73 70 81 95 99 95 88 81 77 72 64 61 70 80
97 101 100 99 101 101 100 100 101 101 101 101 100 100 100 98 94 91 94 100 101 98 96 96 98 96 89 87 94 100 100 99 98 94 90 85 82 82 80 80 83 90 97 100 98 97 93 84 78 77 83 93 101 100 96 94 88 78 68 57 49 51 58
99 101 101 101 101 100 100 101 101 100 99 99 100 100 97 91 88 89 95 100 98 95 96 97 97 97 95 95 99 101 99 99 98 95 92 91 91 90 88 84 82 85 91 98 100 98 91 85 86 92 97 99 100 99 98 98 96 92 81 66 57 55 55
100 101 101 101 100 100 100 99 98 96 94 94 96 96 95 92 93 95 98 98 96 97 99 99 99 99 100 100 100 100 100 99 99 99 98 96 96 97 97 95 90 86 88 94 98 100 98 97 97 99 100 100 100 100 100 99 99 100 96 87 83 79 70
101 101 101 100 100 100 97 93 91 91 91 93 96 97 98 98 99 100 99 97 98 100 100 99 99 99 99 100 100 99 100 99 99 99 99 98 97 98 100 100 97 92 91 94 97 99 100 100 100 99 99 100 100 99 100 100 100 99 97 96 98 93 82
101 101 101 100 100 100 98 92 90 89 91 97 100 100 100 100 99 100 100 98 99 100 100 99 100 100 100 100 100 99 99 100 100 100 99 98 98 98 99 101 100 98 97 98 99 100 100 99 100 100 99 100 100 100 100 100 100 99 99 99 99 93 83
101 100 101 100 98 99 100 98 94 93 96 100 101 100 100 100 100 100 101 100 99 100 100 100 99 99 98 97 97 99 100 100 100 100 100 100 100 99 100 100 100 100 100 100 100 100 100 100 100 100 100 100 100 100 100 100 100 100 99 98 97 94 89
100 100 100 100 99 100 101 99 96 97 99 100 100 100 99 99 100 101 100 99 99 99 100 100 99 99 98 97 98 100 101 100 100 100 100 100 100 100 100 100 100 100 100 100 100 100 100 100 100 100 100 100 100 100 100 100 100 100 100 99 98 98 97
100 101 100 100 100 100 99 99 99 100 100 100 100 100 96 95 98 97 92 93 98 100 100 101 100 100 98 97 100 101 100 99 100 100 100 100 99 98 98 96 97 98 98 99 101 100 100 100 99 99 100 100 100 100 100 100 100 100 100 100 100 100 100
99 100 99 99 100 98 97 99 101 101 101 101 98 93 90 91 94 91 86 89 97 100 101 101 102 101 99 98 101 102 100 100 101 100 100 100 97 94 93 90 88 88 88 90 93 96 98 100 100 100 101 100 100 100 99 100 100 100 100 100 100 100 100
97 97 97 98 99 98 98 101 102 102 102 97 88 84 87 91 93 90 87 89 95 99 101 101 101 101 100 100 102 102 100 100 100 101 101 101 98 95 93 90 87 84 81 80 81 83 86 90 93 96 99 100 101 101 100 100 100 100 100 100 99 100 100
98 97 97 98 99 99 100 102 103 101 97 88 81 84 91 92 90 89 90 93 97 101 101 100 100 101 102 102 102 102 100 100 100 100 102 101 99 97 96 95 94 90 85 82 81 81 82 83 83 85 87 90 93 96 97 98 99 99 100 100 100 101 100
Wind_Speed
31 31 31 30 30 29 29 29 28 27 27 26 26 25 24 23 23 23 23 21 20 20 20 20 20 21 21 21 22 23 23 23 23 24 24 25 27 29 31 31 30 33 35 31 29 30 30 30 30 30 29 28 28 29 27 26 25 24 23 21 20 21 21
33 32 33 32 32 31 31 30 30 29 29 28 28 27 25 24 23 24 23 22 20 19 19 20 20 20 20 21 22 23 23 24 23 24 25 25 26 28 30 31 31 34 35 34 33 33 33 32 33 35 33 31 31 31 31 31 30 28 27 26 24 23 22
33 33 33 33 33 32 32 32 32 31 30 29 29 28 26 24 24 24 23 22 20 19 19 20 20 20 20 21 23 24 25 25 25 26 27 27 27 28 29 30 32 34 35 36 36 35 34 33 33 35 35 33 32 32 32 33 34 32 31 30 28 27 25
33 34 34 34 34 33 32 32 32 32 31 30 29 28 26 25 24 24 23 22 20 19 19 20 20 19 19 20 22 24 25 26 27 27 28 29 29 29 30 30 31 33 34 34 36 36 35 33 31 33 34 34 34 34 34 34 34 34 35 34 32 31 30
33 34 34 34 34 33 33 32 32 31 31 30 29 28 26 25 25 24 22 21 21 20 19 19 19 19 18 19 20 21 22 24 25 26 27 28 29 30 30 31 32 33 34 34 36 37 36 34 32 32 33 33 34 35 35 35 35 35 35 36 36 35 34
33 34 34 34 34 34 33 33 32 32 30 29 29 27 25 24 23 22 22 22 22 20 19 19 20 19 16 16 18 18 19 20 21 23 25 27 28 29 29 30 31 32 33 35 37 37 37 38 38 36 34 33 33 35 37 37 37 36 35 36 37 38 37
32 32 33 33 33 33 33 33 33 32 31 30 28 26 24 23 22 21 22 22 21 20 19 20 20 19 16 14 15 15 16 18 19 20 22 23 25 26 28 29 30 30 32 34 36 37 38 40 40 39 38 36 33 34 37 38 37 37 36 35 35 37 38
32 32 32 32 33 33 33 33 33 32 31 30 27 25 23 22 22 22 22 22 22 21 21 22 21 19 16 14 13 13 15 18 19 20 20 20 21 23 25 27 28 29 30 31 34 36 37 38 40 41 40 38 35 36 38 37 35 36 38 36 34 34 35
32 32 32 31 31 32 32 32 33 32 30 29 26 24 23 23 23 23 23 23 22 22 22 22 21 18 16 14 13 14 16 18 20 22 22 21 20 21 22 23 25 26 28 29 31 33 35 36 39 40 39 38 39 40 39 36 33 35 37 36 35 36 34
32 32 31 31 31 31 31 31 31 30 28 26 24 23 23 23 23 23 23 22 22 22 21 19 18 17 16 15 16 16 16 17 19 21 21 20 20 21 22 22 23 24 25 26 28 29 30 34 37 39 38 39 40 39 38 36 35 37 37 33 34 38 36
31 31 30 30 31 31 30 30 29 28 26 24 23 23 23 23 23 22 22 22 22 21 18 16 16 16 17 18 18 17 16 16 17 19 19 19 19 20 20 21 23 23 23 24 25 25 25 28 31 31 32 34 36 35 35 36 36 37 35 31 31 35 35
31 30 30 30 30 30 30 29 27 26 24 22 22 22 23 23 22 21 21 21 20 19 17 16 17 18 19 20 19 19 18 17 17 17 19 20 20 20 20 20 20 21 22 23 24 23 23 23 24 24 24 26 27 28 29 31 32 34 34 30 28 30 31
30 29 29 29 30 30 29 27 25 24 23 22 21 21 21 22 22 21 20 20 18 16 15 17 18 20 21 20 20 20 20 19 18 18 19 20 20 21 23 24 24 23 22 22 22 23 23 21 21 21 21 20 18 17 18 21 24 27 30 29 26 26 27
29 29 29 29 29 29 28 26 24 23 22 21 21 21 21 22 22 21 21 19 17 17 18 19 21 22 23 22 21 21 19 19 18 17 17 18 20 21 22 25 26 27 27 27 27 27 24 21 21 22 21 19 17 16 15 16 18 21 23 24 25 26 26
29 28 28 28 28 28 27 25 22 22 21 21 21 20 20 22 21 21 21 20 18 18 19 19 19 20 21 22 21 19 17 16 16 15 15 16 19 21 22 23 24 25 27 30 33 33 27 22 22 22 21 19 18 18 19 18 16 17 19 22 25 28 29
28 27 27 26 26 27 26 23 20 21 21 21 20 21 21 22 21 22 21 18 16 16 16 14 14 15 16 17 16 14 13 13 14 15 16 17 18 19 21 23 24 23 23 25 29 31 29 24 23 23 23 22 20 18 20 21 20 20 22 25 27 30 30
26 26 26 25 25 25 25 21 19 20 21 20 21 21 22 22 22 21 18 15 15 15 14 12 13 15 15 13 12 13 13 13 15 16 17 19 19 20 21 23 23 22 21 21 22 25 27 26 25 25 25 23 22 19 18 23 28 27 26 26 28 30 30
25 25 25 24 23 23 23 20 18 19 21 21 22 21 21 22 20 17 15 15 17 20 20 18 16 16 15 11 11 12 13 14 16 18 18 19 19 20 22 23 22 21 21 21 20 21 22 24 24 26 26 26 24 21 19 24 30 31 30 29 29 30 29
24 24 23 23 21 21 21 19 17 19 21 22 23 23 22 20 16 15 16 17 18 21 23 23 22 20 17 15 14 15 14 14 16 18 20 21 20 22 23 23 22 21 21 21 20 19 18 19 19 21 25 27 28 26 25 26 28 29 32 33 32 30 28
23 23 21 20 20 20 20 19 17 18 21 22 23 24 21 16 14 17 19 19 19 20 22 24 23 21 19 18 19 20 20 19 18 18 20 22 23 24 24 23 22 22 20 20 19 19 19 20 19 18 20 25 28 31 32 31 30 30 31 32 32 30 28
21 22 20 19 19 19 19 18 17 18 20 22 23 24 20 13 16 20 22 21 21 21 22 23 23 22 20 19 19 20 22 23 22 21 20 22 24 24 22 22 23 23 22 22 22 22 22 23 23 22 21 23 26 31 34 35 35 34 34 34 33 31 30
20 20 19 17 17 17 17 17 17 18 20 20 22 23 18 13 17 21 22 23 23 24 25 27 28 27 24 20 18 18 19 21 21 20 20 22 24 24 23 22 23 23 24 24 24 24 24 25 27 25 23 24 26 28 31 35 37 37 38 39 38 35 34
19 19 18 16 15 16 16 16 16 18 19 19 20 20 16 14 16 19 21 22 24 25 26 28 31 30 26 22 20 18 17 18 17 17 19 22 23 22 20 19 18 21 24 25 25 25 26 26 26 24 22 24 26 26 27 30 33 35 38 41 43 41 39
17 17 16 15 14 14 14 14 15 17 18 19 19 18 17 17 19 20 20 20 23 25 26 28 31 30 26 23 21 18 17 18 17 17 21 24 23 22 19 17 15 16 20 23 26 27 26 24 22 20 20 22 23 21 22 24 26 29 33 38 43 45 45
17 16 15 14 13 14 13 13 15 16 17 18 20 20 21 22 21 20 19 19 21 23 25 26 27 26 25 22 19 18 19 20 20 22 24 24 23 23 23 22 21 18 17 18 20 21 22 20 18 17 18 20 19 17 17 20 22 23 25 30 36 42 44
15 14 13 13 12 13 13 13 14 16 17 18 20 21 22 21 20 19 18 17 19 22 23 23 22 22 22 20 18 20 23 24 24 24 24 22 22 22 23 24 25 23 19 17 17 19 19 18 16 17 18 18 18 16 16 17 18 18 18 22 27 32 35
14 13 12 12 12 13 13 13 14 15 16 16 17 17 17 17 16 16 15 17 19 19 19 18 17 16 17 17 19 22 24 24 23 22 21 20 20 21 21 22 24 24 21 18 18 20 19 17 16 19 21 21 19 16 15 14 14 15 15 17 20 24 28
13 11 12 11 10 11 13 14 14 14 14 14 14 13 13 12 10 10 14 16 14 12 12 13 14 14 16 17 18 19 19 19 19 19 19 20 20 20 20 21 21 22 22 20 19 20 20 19 19 21 24 23 20 17 15 14 14 15 15 16 18 21 24
12 11 11 9 7 9 12 13 13 13 13 13 12 11 11 11 9 10 15 14 9 8 10 11 12 14 16 16 16 17 17 17 17 17 18 19 19 19 19 19 18 18 18 18 19 19 19 20 21 22 24 24 22 18 16 15 15 15 15 16 18 20 23
11 12 11 7 6 9 11 13 13 13 13 11 11 11 11 11 10 11 13 11 9 11 14 13 13 14 15 16 17 18 18 16 15 15 16 16 16 15 16 17 17 16 15 15 16 17 19 20 21 22 23 23 22 19 16 14 14 14 15 17 19 21 23
10 11 9 10 11 10 11 13 14 14 12 11 10 10 10 10 11 11 11 11 12 15 17 17 18 19 19 19 20 19 16 14 13 13 13 13 13 13 13 15 17 17 15 15 15 16 17 19 21 22 22 21 21 20 17 14 12 12 14 16 18 20 22
8 9 12 15 13 11 13 15 14 13 11 10 9 9 11 12 12 11 11 14 17 19 20 20 20 20 20 20 19 16 13 13 13 12 12 11 11 11 11 13 14 15 15 15 15 15 16 17 19 22 23 22 22 22 21 19 17 16 16 17 17 18 19
13 17 19 20 20 18 18 17 14 12 11 10 10 12 14 13 11 12 14 16 16 17 19 20 19 18 17 16 15 13 13 13 12 12 11 10 10 10 10 10 11 12 13 13 13 14 14 15 17 19 21 22 23 24 25 24 23 21 21 21 21 20 21
23 24 23 24 24 23 22 21 18 16 15 15 16 16 15 12 11 13 14 13 13 15 16 16 16 16 16 14 13 12 12 12 12 12 11 9 9 9 9 9 9 10 11 11 12 12 13 14 15 16 17 19 21 22 23 24 24 24 24 24 24 24 24
25 24 24 24 23 21 20 20 18 16 16 17 17 15 12 10 11 12 12 12 12 14 14 15 16 16 15 14 12 12 12 12 12 11 10 9 9 8 7 7 8 8 9 10 11 12 13 14 15 15 16 17 18 19 20 21 22 23 23 24 25 26 26
23 23 23 22 21 20 18 16 15 15 17 17 15 11 9 10 10 10 11 11 11 12 12 14 15 15 15 14 13 12 12 12 12 12 11 10 9 8 7 7 7 7 8 8 9 10 12 13 14 15 16 17 17 18 19 19 20 20 21 22 24 25 26
Wind_Direction
261 260 260 260 259 259 260 260 262 265 266 268 270 270 271 273 275 275 274 274 276 278 279 279 277 275 271 266 264 263 262 262 261 260 258 256 255 253 252 252 254 258 263 262 257 255 255 254 256 258 257 256 251 243 239 239 237 236 235 234 233 231 229
262 261 260 260 260 260 261 261 263 265 267 268 269 269 270 271 274 273 271 270 273 276 277 277 278 279 275 268 264 263 261 260 258 258 258 257 256 255 253 252 253 256 261 264 261 259 259 259 259 259 260 262 261 255 249 244 240 239 239 239 238 235 233
263 263 262 262 261 261 261 263 264 266 268 269 269 269 270 271 273 273 271 270 272 274 275 275 277 279 277 271 266 264 262 260 259 257 257 257 255 256 255 253 253 255 258 262 262 261 262 263 262 261 261 264 266 264 261 255 248 245 243 242 242 241 238
264 264 264 263 263 263 263 263 265 266 268 269 269 269 269 270 271 270 269 269 271 273 273 274 276 279 277 271 266 264 262 260 258 256 256 256 256 255 256 255 254 254 256 260 262 261 262 264 265 264 264 266 267 267 266 264 260 255 249 245 244 245 243
263 264 264 264 264 265 264 264 265 266 267 268 269 268 268 269 269 268 267 268 269 269 271 272 275 278 277 271 268 266 264 262 260 258 256 255 255 254 255 255 255 254 254 257 259 260 261 262 264 265 266 267 268 269 270 269 266 264 259 253 249 247 246
263 263 263 264 265 265 265 265 265 265 266 266 267 267 267 268 267 266 267 267 267 268 271 274 274 274 271 267 268 270 270 268 265 262 259 257 256 255 254 255 255 256 255 255 256 259 260 260 261 263 265 266 268 271 273 273 272 270 266 262 257 252 249
262 263 263 263 264 264 265 265 265 265 265 265 266 265 266 266 264 264 266 266 266 270 273 274 272 271 265 259 264 272 276 275 272 268 265 262 259 257 255 255 255 256 256 256 256 257 258 259 260 262 264 266 268 270 271 273 274 273 271 268 265 260 255
263 263 263 263 264 264 264 264 264 264 263 263 264 264 263 262 261 263 263 263 266 270 272 273 273 268 260 254 259 269 277 280 278 274 272 269 264 259 256 255 255 255 256 256 257 256 256 258 259 261 263 265 266 266 266 268 272 275 276 274 272 269 263
263 264 264 264 264 264 265 265 264 264 263 263 263 261 259 258 258 259 258 259 263 267 269 272 272 269 263 261 266 273 279 282 280 277 275 272 269 263 259 257 255 255 256 257 257 257 256 256 257 259 261 262 263 264 266 268 269 271 274 275 275 273 269
264 265 265 265 264 264 265 265 264 264 263 262 261 258 255 254 255 255 256 257 262 267 270 272 269 267 267 269 272 273 274 276 278 279 278 275 272 268 263 261 259 258 257 256 258 259 259 258 258 258 259 261 263 265 267 267 266 267 268 271 274 273 269
265 265 266 265 265 265 265 265 265 264 262 259 256 254 254 254 253 251 251 254 260 264 266 267 267 268 271 272 272 270 269 270 274 278 277 274 273 271 267 263 262 262 262 261 260 262 263 262 263 264 263 263 264 264 264 264 263 265 265 265 268 271 270
266 265 265 266 266 266 266 266 265 263 259 253 248 248 253 255 253 249 247 251 255 256 258 265 274 280 281 279 277 275 274 271 269 270 270 268 268 269 268 267 265 263 262 262 264 266 267 268 271 274 272 269 267 265 264 264 262 262 262 260 262 267 269
266 266 265 266 267 267 266 266 264 261 257 250 243 242 244 247 248 249 252 254 255 260 269 279 285 288 285 281 278 277 276 273 271 268 264 260 258 258 258 259 263 267 269 268 267 267 269 272 274 276 279 282 281 275 270 267 261 259 258 256 253 256 262
267 266 266 266 267 267 266 265 263 258 253 246 241 238 236 236 240 246 253 256 261 272 282 288 290 289 286 282 277 273 271 272 274 273 266 259 252 249 249 249 251 257 263 267 269 270 272 275 275 275 279 282 279 271 266 266 263 257 253 249 247 249 252
268 268 267 266 267 266 265 263 259 254 249 241 237 233 228 228 233 240 247 254 264 274 282 289 291 287 284 281 275 268 267 270 275 276 271 265 257 251 249 249 247 248 250 254 260 267 275 282 280 278 280 279 272 259 251 253 259 252 243 242 244 244 244
270 269 268 266 265 265 264 261 255 249 244 237 233 227 222 223 228 234 242 253 264 272 280 285 283 278 278 280 274 267 267 272 276 276 273 272 269 264 259 253 249 250 251 249 250 258 268 278 279 278 277 277 274 263 245 238 240 238 233 236 242 244 241
271 269 267 265 263 263 264 260 251 245 240 234 228 222 218 221 226 231 245 260 262 262 264 261 260 265 270 272 273 273 272 270 271 272 270 267 267 269 268 262 255 252 252 250 248 251 259 266 271 273 274 274 275 272 251 234 232 230 230 236 243 245 241
271 268 266 264 263 262 261 257 246 239 237 230 222 217 217 220 225 236 256 264 255 250 251 250 253 259 260 259 267 271 270 268 266 264 264 264 265 266 269 268 265 260 255 250 249 251 254 258 262 265 266 268 269 265 250 238 234 230 230 238 245 245 244
269 267 264 263 262 259 257 254 242 233 233 227 218 214 214 217 230 248 256 254 247 245 248 250 250 250 251 253 259 260 260 262 263 263 265 267 267 266 269 271 270 270 266 256 251 255 259 261 261 257 254 255 254 248 242 243 245 241 237 240 245 246 249
267 266 264 262 260 255 253 250 240 231 227 223 217 212 209 219 247 254 249 246 244 244 249 252 250 248 252 258 261 258 256 253 252 257 265 269 269 269 273 277 275 272 270 263 258 263 268 270 268 259 249 248 246 242 239 239 242 244 243 243 245 245 247
266 265 264 260 255 252 249 245 239 230 223 221 218 210 207 230 256 250 244 245 245 245 250 255 255 256 261 268 267 262 258 255 252 252 258 266 273 277 280 280 274 268 266 265 264 268 271 274 274 266 253 249 248 245 241 237 236 236 235 237 241 241 243
265 263 262 258 252 249 244 238 235 229 222 222 219 211 212 241 256 249 246 248 248 250 254 257 260 262 263 268 271 266 260 257 255 256 259 261 267 273 277 276 272 267 265 265 266 269 271 273 277 274 262 256 257 254 246 240 239 236 231 229 232 233 237
262 261 259 254 248 242 234 227 228 227 223 222 219 215 222 245 250 247 249 251 251 254 257 259 263 264 262 264 269 269 264 261 261 263 264 261 261 266 273 274 269 264 263 262 263 267 269 270 272 273 265 258 261 264 257 246 243 242 236 230 228 229 234
259 258 256 251 241 230 220 218 223 224 223 223 219 218 228 240 244 246 251 253 255 256 257 260 264 266 265 264 267 270 270 269 266 262 259 258 258 260 264 266 264 263 263 263 261 263 266 266 264 264 265 263 263 268 267 256 249 248 244 236 229 227 230
257 255 250 244 231 216 210 217 223 222 223 224 224 227 235 241 246 250 253 256 257 257 259 262 266 269 269 265 263 266 264 259 255 253 256 261 263 261 260 260 262 266 268 266 264 261 261 264 264 264 270 270 266 268 269 257 248 246 245 239 232 229 231
255 249 242 234 221 210 212 219 222 223 228 231 232 236 241 245 251 254 253 253 256 258 262 265 269 271 269 261 255 255 255 253 253 256 260 266 270 269 266 261 259 261 263 262 264 264 265 269 272 273 277 273 264 264 268 256 244 241 236 228 226 228 231
252 245 233 222 212 213 220 225 227 230 234 236 238 242 247 253 256 253 252 253 254 255 260 264 266 267 264 255 250 250 253 257 259 262 265 267 269 273 274 269 263 261 258 256 258 264 270 275 276 276 279 274 263 262 270 264 251 244 234 222 219 223 228
250 236 217 209 211 224 231 231 233 239 243 246 251 257 265 271 267 265 269 264 252 247 255 258 255 254 253 253 254 257 261 265 265 266 268 269 269 270 271 273 272 268 261 254 251 256 263 268 270 271 274 272 263 260 266 266 258 249 238 228 223 225 228
241 218 201 201 223 249 250 244 243 248 254 262 270 274 280 285 284 282 279 265 242 247 264 259 249 247 247 250 256 262 268 271 270 269 268 269 268 267 265 267 271 272 267 257 249 248 253 256 259 263 266 266 260 256 258 258 253 247 239 232 232 233 235
224 199 194 216 258 271 271 266 260 260 265 273 278 277 279 280 273 271 273 265 254 263 263 251 243 245 244 245 253 261 267 270 270 267 265 265 265 263 261 260 261 263 264 259 250 247 248 248 248 251 255 256 252 250 253 253 247 242 237 233 234 238 240
196 191 221 267 274 267 263 261 263 270 278 285 284 279 274 269 265 269 272 261 250 251 249 244 245 248 248 251 256 260 264 266 264 261 259 260 262 261 257 256 254 253 254 255 253 250 247 242 237 237 241 243 240 240 243 243 238 238 240 238 238 241 242
206 225 249 258 250 243 248 255 264 277 284 287 285 273 265 266 268 268 258 244 238 240 243 247 250 251 252 254 255 257 262 263 260 256 251 250 253 255 254 253 253 253 253 252 250 249 246 241 235 232 232 232 229 229 233 234 232 231 233 237 242 246 248
232 231 228 228 226 231 243 254 266 278 280 277 271 266 268 271 267 258 253 251 249 248 248 251 253 255 255 253 250 253 261 263 257 252 247 245 247 251 255 256 257 257 258 256 252 247 244 241 238 234 232 232 232 233 237 241 241 238 237 238 241 246 249
220 220 221 226 230 234 242 252 262 268 268 265 264 268 275 277 266 259 263 265 261 257 255 254 253 253 253 252 249 252 259 260 254 248 245 245 249 254 257 260 260 260 260 259 257 253 249 246 244 241 238 237 237 238 240 243 245 244 243 242 242 244 248
217 223 228 234 237 242 248 256 262 263 262 264 271 279 284 278 267 264 268 268 264 261 260 255 252 253 254 253 251 253 257 256 248 242 242 245 250 256 261 265 269 270 268 264 260 257 254 252 250 249 247 244 242 242 242 242 243 243 243 243 243 244 246
223 229 235 241 247 253 257 259 259 259 263 272 283 290 283 274 270 267 266 265 264 263 261 256 254 255 255 254 253 253 254 251 245 242 244 243 245 253 264 270 276 279 279 276 271 265 261 258 256 254 253 251 249 248 246 245 245 245 245 245 245 245 245